Weather in Novonikolsk

Russia / Republic of Tatarstan     55°02′55″N   52°20′38″E
temp.,
°C
wind,
m/s
gust,
m/s
humid.,
%
clouds,
%
prec.,
mm/h
press.,
hPa
HPBL,
m
28 june, tue
tue2800:00+13nne7119395 0.3 1012556
03:00+6nne411944 0.3 1014387
06:00+8nne59810 0.0 1015578
09:00+12n696570 0.0 10151410
12:00+10nne5868100 0.0 10171168
15:00+14nnw595387 0.0 10162254
18:00+11n587079 0.1 1017758
21:00+7nnw388023 0.1 1018164
29 june, wed
wed2900:00+5nw358493 0.0 1018103
03:00+6nw287393 0.0 1018364
06:00+8n587892 0.0 1018536
09:00+12n576978 0.0 10181174
12:00+14nnw576499 0.0 10171471
15:00+17nnw57577 0.0 10151821
18:00+16wnw46744 0.0 1014246
21:00+10wnw228928 0.1 101421
30 june, thu
thu3000:00+9w2289100 0.0 101415
03:00+9wsw228594 0.0 101224
06:00+12wnw2679100 0.0 1011244
09:00+15nw5868100 0.0 1010709
12:00+16wnw686282 0.7 10091516
15:00+14n7976100 2.8 10091205
18:00+11nne711845 1.8 1010814
21:00+7n4129111 2.2 1012361
1 july, fri
fri100:00+7nnw51391100 2.0 1012586
03:00+7n7148913 2.0 1013477
06:00+8n712885 0.0 1014499
09:00+12nne787271 0.0 10141027
12:00+15nne6965100 0.0 10141527
15:00+15nnw3669100 0.1 1014911
18:00+15nw367645 0.1 1013185
21:00+11nw228247 0.1 101414
2 july, sat
sat200:00+10wnw22885 0.0 101415
03:00+9w228991 0.0 101414
06:00+13nw24795 0.0 1014201
09:00+18nnw346644 0.0 1013561
12:00+21nw3459100 0.0 10131250
15:00+21wnw456335 0.1 10121321
18:00+19wnw46805 0.1 1012322
21:00+14wnw22935 0.1 101311